Location: Crocus Hill
(18.2167°N, 63.0667°W)
Time: 17:07:52
(UTC+00:00)

CZ-4B R/B - Pass Details

Date: 26 January 2020
Orbit: 808 x 882 km, 99.1° (Epoch: 26 February)

Event Time Altitude Azimuth Distance (km) Brightness Sun altitude
Rises 10:12:36 0° 1° (N) 3,393 6.2 -8.5°
Reaches altitude 10° 10:15:06 10° 354° (N) 2,446 5.4 -8.0°
Maximum altitude 10:20:06 40° 286° (WNW) 1,206 3.6 -6.8°
Drops below altitude 10° 10:25:01 10° 218° (SW) 2,402 5.4 -5.7°
Sets 10:27:28 0° 211° (SSW) 3,325 6.2 -5.2°
